Location: Catstown
(52.4386°N, 7.2633°W)
Time: 03:01:25
(UTC+00:00)

Cosmos 494 Rocket - Pass Details

Date: 18 September 2020
Orbit: 741 x 771 km, 74.1° (Epoch: 18 October)

Event Time Altitude Azimuth Distance (km) Brightness Sun altitude
Rises 19:54:36 0° 336° (NNW) 3,243 7.9 -12.6°
Reaches altitude 10° 19:57:03 10° 342° (NNW) 2,317 7.0 -12.9°
Maximum altitude 20:02:10 50° 58° (ENE) 980 4.3 -13.6°
Enters shadow 20:05:36 20° 126° (SE) 1,716 5.2 -14.1°
